Notices

What's New in latest Release from April 7th, 2021:

- Updated Glossary, including Speed of Maximum Gust, and Total Hourly Precipitation

- Updated national and regional climate services offices contacts and prices information

- Addition of station inventory lists for 1981-2010, 1971-2000, and 1961-1990 Normals.

If you haven't already, please take our survey and provide feedback about our website: https://eccc.sondage-survey.ca/f/LanguageSelection.aspx?s=442ca660-fcf1-47c0-95a9-59707d6fd709

Hourly Data Report for April 20, 2021

CORNER BROOK
NEWFOUNDLAND
Current Station Operator: ECCC - MSC

48°56'00.000" N
57°55'00.000" W
151.80 m
8401298
71973
WKB

Download Data

Hourly Data (April 2021)
Hourly Data Report for April 20, 2021
TIME
LST
Temp Definition
°C
Dew Point Definition
°C
Rel Hum Definition
%
Precip. Amount Definition
mm

Wind Dir Definition
10's deg

Wind Spd Definition
km/h
Visibility Definition
km
Stn Press Definition
kPa
Hmdx Definition


Wind Chill Definition


Weather Definition


00:30 2.5 1.5 93 0.0 4 6   98.43     LegendNANA
01:30 2.4 1.4 93 0.0 8 5   98.47     LegendNANA
02:30 2.4 1.3 93 0.0 5 7   98.52     LegendNANA
03:30 2.4 1.4 93 0.6   0   98.57     LegendNANA
04:30 2.3 1.3 93 0.0 0 1   98.58     LegendNANA
05:30 2.3 1.3 94 0.0 29 5   98.62     LegendNANA
06:30 2.4 1.4 93 0.0 32 4   98.66     LegendNANA
07:30 2.8 1.6 92 0.0 32 9   98.71     LegendNANA
08:30 3.8 1.7 86 0.0 2 7   98.72     LegendNANA
09:30 4.3 1.2 80 0.0 34 9   98.74     LegendNANA
10:30 5.1 0.4 72 0.0 36 10   98.75     LegendNANA
11:30 5.3 0.8 72 0.0 3 15   98.75     LegendNANA
12:30 7.6 0.8 62 0.0 32 11   98.74     LegendNANA
13:30 7.0 0.6 64 0.0 30 14   98.77     LegendNANA
14:30 6.2 0.5 67 0.0 30 14   98.82     LegendNANA
15:30 5.7 -0.1 66 0.0 29 13   98.85     LegendNANA
16:30 5.1 0.4 72 0.0 29 8   98.89     LegendNANA
17:30 4.5 0.3 74 0.0 30 9   98.93     LegendNANA
18:30 3.9 -0.2 75 0.0 31 9   98.96     LegendNANA
19:30 3.2 -0.3 78 0.0 31 7   98.99     LegendNANA
20:30 2.6 -0.4 81 0.0 25 4   99.06     LegendNANA
21:30 2.6 -0.1 83 0.0 27 4   99.08     LegendNANA
22:30 2.5 -0.3 82 0.0 22 1   99.09     LegendNANA
23:30 2.2 -0.6 82 0.0 29 7   99.14     LegendNANA

Notes on Data Quality.

Legend

  • E = Estimated
  • M = Missing
  • NA = Not Available*
  • [empty] = Indicates an unobserved value
Date modified: